Regional Weather Roundup
Issued by NWS Charleston, WV

Home | Current Version | Previous Version | Graphics & Text | Print | Product List | Glossary On
Versions: 1 2 3 4 5 6 7 8 9 10 11 12 13 14 15 16 17 18 19 20 21 22 23 24 25 26 27
000
ASUS41 KRLX 210310
RWRRLX
West Virginia Regional Weather Roundup
National Weather Service Charleston WV
1000 PM EST TUE FEB 20 2018

Note: "fair" indicates few or no clouds below 12,000 feet with no
significant weather and/or obstructions to visibility.

WVZ003-210400-
Northern Panhandle of West Virginia

CITY           SKY/WX    TMP DP  RH WIND       PRES   REMARKS
WHEELING         N/A     68  49  50 S12       30.19R
$$

WVZ009-210400-
Northwest West Virginia

CITY           SKY/WX    TMP DP  RH WIND       PRES   REMARKS
PARKERSBURG      N/A     70  49  47 SW8       30.24R
$$

WVZ006-210400-
Western West Virginia

CITY           SKY/WX    TMP DP  RH WIND       PRES   REMARKS
HUNTINGTON       N/A     71  51  49 S10G17    30.22S
$$

WVZ015-210400-
West Central West Virginia

CITY           SKY/WX    TMP DP  RH WIND       PRES   REMARKS
CHARLESTON       N/A     64  50  60 CALM      30.24S
$$

WVZ022-031-210400-
North Central West Virginia

CITY           SKY/WX    TMP DP  RH WIND       PRES   REMARKS
CLARKSBURG       N/A     65  49  56 S6        30.24R
MORGANTOWN       N/A     66  49  54 CALM      30.24R
$$

WVZ025-035-042-045-210400-
Southern West Virginia

CITY           SKY/WX    TMP DP  RH WIND       PRES   REMARKS
BECKLEY          N/A     60  51  72 SE9       30.36R
LOGAN          CLOUDY    72  48  43 S7G13     30.29S
BLUEFIELD        N/A     59  49  69 VRB7      30.40R
LEWISBURG        N/A     55  50  84 CALM      30.40R
$$

WVZ047-210400-
Northern Mountains of West Virginia

CITY           SKY/WX    TMP DP  RH WIND       PRES   REMARKS
ELKINS           N/A     62  50  64 S6        30.32R
$$

WVZ052-210400-
Eastern Panhandle of West Virginia

CITY           SKY/WX    TMP DP  RH WIND       PRES   REMARKS
MARTINSBURG      N/A     64  55  72 S8        30.27R
PETERSBURG       N/A     65  54  66 SE3       30.29S
$$




USA.gov is the U.S. government's official web portal to all federal, state and local government web resources and services.